Weather History for Nueva Ocotepeque, Honduras

Change the Weather History Date:

Thursday, May 3, 2012

  Actual Average (MHTG) Record (MHTG)
Temperature  
Mean Temperature 80 °F -  
Max Temperature 90 °F 86 °F 93 °F (1997)
Min Temperature 69 °F 64 °F 62 °F (2002)
Cooling Degree Days 14    
Growing Degree Days 30 (Base 50)    
Moisture  
Dew Point 70 °F    
Average Humidity 77    
Maximum Humidity 100    
Minimum Humidity 42    
Precipitation  
Precipitation 0.03 in - - ()
Sea Level Pressure  
Sea Level Pressure 29.83 in    
Wind  
Wind Speed 3 mph ()    
Max Wind Speed 17 mph    
Max Gust Speed 23 mph    
Visibility 5.8 miles    
Events Rain    
Averages and records for this station are not official NWS values.
T = Trace of Precipitation, MM = Missing Value Source: Averaged Metar Reports

Daily Weather History Graph

Daily Weather History Graph

Search for Another Location

Airport:

Trip Planner

Search our weather history database for the weather conditions in past years. The results will help you decide how hot, cold, wet, or windy it might be!

Date:

Astronomy

May. 03, 2012 Rise Set
Actual Time 5:27 AM CST 6:07 PM CST
Civil Twilight 5:04 AM CST 6:30 PM CST
Nautical Twilight 4:38 AM CST 6:56 PM CST
Astronomical Twilight 4:11 AM CST 7:22 PM CST
Moon 3:49 PM CST (5/3) 3:05 AM CST (5/3)
Length of Visible Light 13h 25m
Length of Day
12h 40m
Waxing Gibbous, 91% of the Moon is Illuminated
May 3
Waxing Gibbous
May 5
Full
May 12
Last Quarter
May 20
New
May 28
First Quarter

Hourly Weather History & Observations

Time (CST) Temp. Heat Index Dew Point Humidity Pressure Visibility Wind Dir Wind Speed Gust Speed Precip Events Conditions
12:55 AM 74.7 °F - 71.2 °F 89% 29.79 in 6.2 mi Calm Calm - N/A   Mostly Cloudy
1:55 AM 74.7 °F - 70.7 °F 87% 29.78 in 6.2 mi Calm Calm - N/A   Mostly Cloudy
2:55 AM 74.1 °F - 71.4 °F 91% 29.78 in 6.2 mi Calm Calm - N/A   Mostly Cloudy
3:55 AM 73.2 °F - 72.0 °F 96% 29.78 in 6.2 mi SE 3.5 mph - N/A   Mostly Cloudy
4:20 AM 73.4 °F - 71.6 °F 94% 29.79 in 6.2 mi Calm Calm - N/A Rain Light Rain
4:30 AM 73.4 °F - 71.6 °F 94% 29.80 in 6.2 mi Calm Calm - N/A   Mostly Cloudy
4:47 AM 73.4 °F - 71.6 °F 94% 29.81 in 6.2 mi Calm Calm - N/A   Light Drizzle
4:55 AM 73.2 °F - 72.3 °F 97% 29.81 in 6.2 mi Calm Calm - 0.00 in   Light Drizzle
4:56 AM 73.4 °F - 71.6 °F 94% 29.83 in 6.2 mi Calm Calm - N/A   Overcast
5:55 AM 73.0 °F - 72.9 °F 99% 29.84 in - Calm Calm - 0.00 in   Mostly Cloudy
6:00 AM 70 °F - - %  in 6 mi Calm Calm - -   Smoke
6:00 AM 73.4 °F - 73.4 °F 100% 29.84 in - Calm Calm - N/A   Mostly Cloudy
6:09 AM 73.4 °F - 73.4 °F 100% 29.85 in - Calm Calm - N/A   Overcast
6:13 AM 73.4 °F - 73.4 °F 100% 29.85 in - Calm Calm - N/A   Overcast
6:23 AM 73.4 °F - 73.4 °F 100% 29.86 in - Calm Calm - N/A   Mostly Cloudy
6:55 AM 73.8 °F - 72.1 °F 95% 29.86 in - Calm Calm - N/A   Scattered Clouds
7:55 AM 75.7 °F - 71.8 °F 87% 29.89 in - Calm Calm - N/A   Scattered Clouds
8:41 AM 77.0 °F - 71.6 °F 83% 29.88 in 3.1 mi Variable 3.5 mph - N/A   Mostly Cloudy
8:44 AM 78.8 °F - 71.6 °F 78% 29.89 in 6.2 mi Calm Calm - N/A   Mostly Cloudy
8:55 AM 78.4 °F - 71.1 °F 78% 29.88 in 3.1 mi WNW 4.6 mph - N/A   Mostly Cloudy
8:57 AM 78.8 °F - 71.6 °F 78% 29.89 in 3.1 mi NW 5.8 mph - N/A   Mostly Cloudy
9:00 AM 78 °F - - %  in 6 mi Calm Calm - -   Smoke
9:26 AM 80.6 °F 83.9 °F 69.8 °F 70% 29.88 in 6.2 mi North 5.8 mph - N/A   Mostly Cloudy
9:55 AM 81.0 °F 84.4 °F 70.0 °F 69% 29.87 in 5.6 mi NNE 6.9 mph - N/A   Mostly Cloudy
10:55 AM 82.6 °F 86.1 °F 69.3 °F 64% 29.86 in 6.2 mi West 5.8 mph - N/A   Mostly Cloudy
11:49 AM 86.0 °F 89.4 °F 68.0 °F 55% 29.84 in 5.0 mi West 8.1 mph - N/A   Haze
11:55 AM 84.7 °F 88.2 °F 68.4 °F 58% 29.83 in 5.0 mi West 6.9 mph - N/A   Haze
12:00 PM 87 °F - - %  in 6 mi North 4.6 mph - -   Smoke
12:28 PM 84.2 °F 87.3 °F 68.0 °F 58% 29.82 in 6.2 mi WSW 5.8 mph - N/A Rain Light Rain
12:29 PM 84.2 °F 87.3 °F 68.0 °F 58% 29.82 in 5.6 mi SW 4.6 mph - N/A Rain Light Rain
12:55 PM 83.3 °F 87.9 °F 70.9 °F 66% 29.82 in 3.7 mi NNW 13.8 mph 23.0 mph 0.03 in Rain Light Rain
12:58 PM 78.8 °F - 69.8 °F 74% 29.82 in 6.2 mi NW 9.2 mph 23.0 mph N/A Rain Light Rain
1:06 PM 78.8 °F - 68.0 °F 69% 29.82 in 6.2 mi WSW 6.9 mph - N/A   Mostly Cloudy
1:07 PM 80.6 °F 83.2 °F 68.0 °F 65% 29.81 in 6.2 mi WSW 5.8 mph - N/A   Mostly Cloudy
1:17 PM 80.6 °F 84.6 °F 71.6 °F 74% 29.81 in 6.2 mi SW 4.6 mph - N/A   Partly Cloudy
1:55 PM 85.3 °F 89.4 °F 69.3 °F 59% 29.77 in 6.2 mi West 5.8 mph - 0.00 in   Scattered Clouds
2:55 PM 90.1 °F 92.3 °F 65.8 °F 44% 29.74 in 6.2 mi WNW 11.5 mph 19.6 mph N/A   Clear
3:00 PM 90 °F - - %  in 6 mi Calm Calm - -   Smoke
3:55 PM 90.7 °F 92.4 °F 64.6 °F 42% 29.72 in 6.2 mi NW 8.1 mph - N/A   Scattered Clouds
4:55 PM 88.9 °F 90.7 °F 65.3 °F 45% 29.73 in 6.2 mi NW 9.2 mph - N/A   Mostly Cloudy
5:55 PM 83.8 °F 88.1 °F 70.0 °F 63% 29.76 in 6.2 mi North 17.3 mph - N/A   Partly Cloudy
6:00 PM 86 °F - - %  in 6 mi Calm Calm - -   Smoke
6:55 PM 80.4 °F 82.7 °F 66.6 °F 63% 29.80 in 6.2 mi North 16.1 mph - N/A   Clear
7:55 PM 78.8 °F - 69.3 °F 72% 29.83 in 6.2 mi NNW 16.1 mph - N/A   Clear
8:55 PM 78.4 °F - 70.2 °F 76% 29.85 in 6.2 mi NNW 17.3 mph - N/A   Mostly Cloudy
9:55 PM 76.8 °F - 69.6 °F 78% 29.88 in 6.2 mi North 13.8 mph - N/A   Mostly Cloudy
10:55 PM 75.7 °F - 70.3 °F 83% 29.88 in 6.2 mi NNW 10.4 mph - N/A   Clear
11:55 PM 74.3 °F - 69.8 °F 86% 29.89 in 6.2 mi North 6.9 mph - N/A   Partly Cloudy